Year,Month,Day,Hour,Minute,Value (Times are PST for temperature in C)
2009,01,19,00,00,2.10
2009,01,19,00,01,2.20
2009,01,19,00,02,2.30
2009,01,19,00,03,2.30
2009,01,19,00,04,2.30
2009,01,19,00,05,2.40
2009,01,19,00,06,2.40
2009,01,19,00,07,2.40
2009,01,19,00,08,2.40
2009,01,19,00,09,2.30
2009,01,19,00,10,2.30
2009,01,19,00,11,2.20
2009,01,19,00,12,2.10
2009,01,19,00,13,2.00
2009,01,19,00,14,2.00
2009,01,19,00,15,1.90
2009,01,19,00,16,1.90
2009,01,19,00,17,1.90
2009,01,19,00,18,1.90
2009,01,19,00,19,1.90
2009,01,19,00,20,1.90
2009,01,19,00,21,2.00
2009,01,19,00,22,2.00
2009,01,19,00,23,2.00
2009,01,19,00,24,2.10
2009,01,19,00,25,2.10
2009,01,19,00,26,2.10
2009,01,19,00,27,2.10
2009,01,19,00,28,2.10
2009,01,19,00,29,2.10
2009,01,19,00,30,2.10
2009,01,19,00,31,2.10
2009,01,19,00,32,2.20
2009,01,19,00,33,2.30
2009,01,19,00,34,2.30
2009,01,19,00,35,2.30
2009,01,19,00,36,2.30
2009,01,19,00,37,2.30
2009,01,19,00,38,2.40
2009,01,19,00,39,2.40
2009,01,19,00,40,2.40
2009,01,19,00,41,2.50
2009,01,19,00,42,2.50
2009,01,19,00,43,2.50
2009,01,19,00,44,2.60
2009,01,19,00,45,2.60
2009,01,19,00,46,2.60
2009,01,19,00,47,2.60
2009,01,19,00,48,2.70
2009,01,19,00,49,2.70
2009,01,19,00,50,2.70
2009,01,19,00,51,2.70
2009,01,19,00,52,2.70
2009,01,19,00,53,2.70
2009,01,19,00,54,2.70
2009,01,19,00,55,2.70
2009,01,19,00,56,2.70
2009,01,19,00,57,2.60
2009,01,19,00,58,2.60
2009,01,19,00,59,2.50
2009,01,19,01,00,2.50
2009,01,19,01,01,2.50
2009,01,19,01,02,2.40
2009,01,19,01,03,2.40
2009,01,19,01,04,2.40
2009,01,19,01,05,2.40
2009,01,19,01,06,2.30
2009,01,19,01,07,2.30
2009,01,19,01,08,2.30
2009,01,19,01,09,2.30
2009,01,19,01,10,2.20
2009,01,19,01,11,2.20
2009,01,19,01,12,2.10
2009,01,19,01,13,2.10
2009,01,19,01,14,2.00
2009,01,19,01,15,1.90
2009,01,19,01,16,1.90
2009,01,19,01,17,1.90
2009,01,19,01,18,1.90
2009,01,19,01,19,1.80
2009,01,19,01,20,1.90
2009,01,19,01,21,1.90
2009,01,19,01,22,2.00
2009,01,19,01,23,2.00
2009,01,19,01,24,2.10
2009,01,19,01,25,2.10
2009,01,19,01,26,2.10
2009,01,19,01,27,2.00
2009,01,19,01,28,2.00
2009,01,19,01,29,1.90
2009,01,19,01,30,1.80
2009,01,19,01,31,1.80
2009,01,19,01,32,1.70
2009,01,19,01,33,1.70
2009,01,19,01,34,1.70
2009,01,19,01,35,1.60
2009,01,19,01,36,1.60
2009,01,19,01,37,1.60
2009,01,19,01,38,1.60
2009,01,19,01,39,1.60
2009,01,19,01,40,1.60
2009,01,19,01,41,1.60
2009,01,19,01,42,1.60
2009,01,19,01,43,1.60
2009,01,19,01,44,1.50
2009,01,19,01,45,1.50
2009,01,19,01,46,1.50
2009,01,19,01,47,1.50
2009,01,19,01,48,1.40
2009,01,19,01,49,1.40
2009,01,19,01,50,1.40
2009,01,19,01,51,1.40
2009,01,19,01,52,1.40
2009,01,19,01,53,1.40
2009,01,19,01,54,1.40
2009,01,19,01,55,1.40
2009,01,19,01,56,1.40
2009,01,19,01,57,1.40
2009,01,19,01,58,1.40
2009,01,19,01,59,1.40
2009,01,19,02,00,1.40
2009,01,19,02,01,1.50
2009,01,19,02,02,1.50
2009,01,19,02,03,1.60
2009,01,19,02,04,1.60
2009,01,19,02,05,1.60
2009,01,19,02,06,1.70
2009,01,19,02,07,1.60
2009,01,19,02,08,1.70
2009,01,19,02,09,1.60
2009,01,19,02,10,1.70
2009,01,19,02,11,1.70
2009,01,19,02,12,1.70
2009,01,19,02,13,1.70
2009,01,19,02,14,1.70
2009,01,19,02,15,1.80
2009,01,19,02,16,1.80
2009,01,19,02,17,1.80
2009,01,19,02,18,1.80
2009,01,19,02,19,1.80
2009,01,19,02,20,1.80
2009,01,19,02,21,1.70
2009,01,19,02,22,1.70
2009,01,19,02,23,1.70
2009,01,19,02,24,1.70
2009,01,19,02,25,1.70
2009,01,19,02,26,1.60
2009,01,19,02,27,1.60
2009,01,19,02,28,1.50
2009,01,19,02,29,1.50
2009,01,19,02,30,1.50
2009,01,19,02,31,1.40
2009,01,19,02,32,1.40
2009,01,19,02,33,1.40
2009,01,19,02,34,1.30
2009,01,19,02,35,1.30
2009,01,19,02,36,1.30
2009,01,19,02,37,1.30
2009,01,19,02,38,1.30
2009,01,19,02,39,1.30
2009,01,19,02,40,1.30
2009,01,19,02,41,1.20
2009,01,19,02,42,1.20
2009,01,19,02,43,1.20
2009,01,19,02,44,1.10
2009,01,19,02,45,1.00
2009,01,19,02,46,1.00
2009,01,19,02,47,0.90
2009,01,19,02,48,0.90
2009,01,19,02,49,0.80
2009,01,19,02,50,0.80
2009,01,19,02,51,0.70
2009,01,19,02,52,0.70
2009,01,19,02,53,0.60
2009,01,19,02,54,0.60
2009,01,19,02,55,0.60
2009,01,19,02,56,0.60
2009,01,19,02,57,0.50
2009,01,19,02,58,0.50
2009,01,19,02,59,0.40
2009,01,19,03,00,0.40
2009,01,19,03,01,0.40
2009,01,19,03,02,0.40
2009,01,19,03,03,0.50
2009,01,19,03,04,0.50
2009,01,19,03,05,0.50
2009,01,19,03,06,0.50
2009,01,19,03,07,0.40
2009,01,19,03,08,0.40
2009,01,19,03,09,0.40
2009,01,19,03,10,0.40
2009,01,19,03,11,0.30
2009,01,19,03,12,0.30
2009,01,19,03,13,0.30
2009,01,19,03,14,0.30
2009,01,19,03,15,0.30
2009,01,19,03,16,0.30
2009,01,19,03,17,0.30
2009,01,19,03,18,0.40
2009,01,19,03,19,0.40
2009,01,19,03,20,0.40
2009,01,19,03,21,0.50
2009,01,19,03,22,0.50
2009,01,19,03,23,0.50
2009,01,19,03,24,0.50
2009,01,19,03,25,0.40
2009,01,19,03,26,0.40
2009,01,19,03,27,0.40
2009,01,19,03,28,0.40
2009,01,19,03,29,0.40
2009,01,19,03,30,0.30
2009,01,19,03,31,0.30
2009,01,19,03,32,0.30
2009,01,19,03,33,0.30
2009,01,19,03,34,0.30
2009,01,19,03,35,0.30
2009,01,19,03,36,0.30
2009,01,19,03,37,0.30
2009,01,19,03,38,0.30
2009,01,19,03,39,0.30
2009,01,19,03,40,0.20
2009,01,19,03,41,0.20
2009,01,19,03,42,0.20
2009,01,19,03,43,0.20
2009,01,19,03,44,0.10
2009,01,19,03,45,0.10
2009,01,19,03,46,0.00
2009,01,19,03,47,0.00
2009,01,19,03,48,-0.10
2009,01,19,03,49,-0.10
2009,01,19,03,50,-0.10
2009,01,19,03,51,-0.10
2009,01,19,03,52,-0.20
2009,01,19,03,53,-0.20
2009,01,19,03,54,-0.20
2009,01,19,03,55,-0.20
2009,01,19,03,56,-0.20
2009,01,19,03,57,-0.20
2009,01,19,03,58,-0.20
2009,01,19,03,59,-0.30
2009,01,19,04,00,-0.30
2009,01,19,04,01,-0.30
2009,01,19,04,02,-0.30
2009,01,19,04,03,-0.30
2009,01,19,04,04,-0.30
2009,01,19,04,05,-0.30
2009,01,19,04,06,-0.30
2009,01,19,04,07,-0.30
2009,01,19,04,08,-0.30
2009,01,19,04,09,-0.30
2009,01,19,04,10,-0.30
2009,01,19,04,11,-0.30
2009,01,19,04,12,-0.30
2009,01,19,04,13,-0.30
2009,01,19,04,14,-0.30
2009,01,19,04,15,-0.40
2009,01,19,04,16,-0.40
2009,01,19,04,17,-0.40
2009,01,19,04,18,-0.40
2009,01,19,04,19,-0.40
2009,01,19,04,20,-0.40
2009,01,19,04,21,-0.40
2009,01,19,04,22,-0.40
2009,01,19,04,23,-0.40
2009,01,19,04,24,-0.40
2009,01,19,04,25,-0.40
2009,01,19,04,26,-0.50
2009,01,19,04,27,-0.50
2009,01,19,04,28,-0.50
2009,01,19,04,29,-0.50
2009,01,19,04,30,-0.50
2009,01,19,04,31,-0.50
2009,01,19,04,32,-0.60
2009,01,19,04,33,-0.60
2009,01,19,04,34,-0.60
2009,01,19,04,35,-0.50
2009,01,19,04,36,-0.50
2009,01,19,04,37,-0.50
2009,01,19,04,38,-0.50
2009,01,19,04,39,-0.50
2009,01,19,04,40,-0.60
2009,01,19,04,41,-0.60
2009,01,19,04,42,-0.50
2009,01,19,04,43,-0.40
2009,01,19,04,44,-0.40
2009,01,19,04,45,-0.40
2009,01,19,04,46,-0.40
2009,01,19,04,47,-0.40
2009,01,19,04,48,-0.40
2009,01,19,04,49,-0.40
2009,01,19,04,50,-0.40
2009,01,19,04,51,-0.40
2009,01,19,04,52,-0.40
2009,01,19,04,53,-0.40
2009,01,19,04,54,-0.40
2009,01,19,04,55,-0.40
2009,01,19,04,56,-0.40
2009,01,19,04,57,-0.40
2009,01,19,04,58,-0.40
2009,01,19,04,59,-0.50
2009,01,19,05,00,-0.50
2009,01,19,05,01,-0.50
2009,01,19,05,02,-0.40
2009,01,19,05,03,-0.40
2009,01,19,05,04,-0.30
2009,01,19,05,05,-0.30
2009,01,19,05,06,-0.30
2009,01,19,05,07,-0.30
2009,01,19,05,08,-0.30
2009,01,19,05,09,-0.30
2009,01,19,05,10,-0.30
2009,01,19,05,11,-0.30
2009,01,19,05,12,-0.40
2009,01,19,05,13,-0.50
2009,01,19,05,14,-0.50
2009,01,19,05,15,-0.50
2009,01,19,05,16,-0.60
2009,01,19,05,17,-0.60
2009,01,19,05,18,-0.60
2009,01,19,05,19,-0.60
2009,01,19,05,20,-0.70
2009,01,19,05,21,-0.70
2009,01,19,05,22,-0.70
2009,01,19,05,23,-0.70
2009,01,19,05,24,-0.80
2009,01,19,05,25,-0.80
2009,01,19,05,26,-0.80
2009,01,19,05,27,-0.80
2009,01,19,05,28,-0.80
2009,01,19,05,29,-0.80
2009,01,19,05,30,-0.80
2009,01,19,05,31,-0.80
2009,01,19,05,32,-0.80
2009,01,19,05,33,-0.90
2009,01,19,05,34,-0.90
2009,01,19,05,35,-0.90
2009,01,19,05,36,-0.90
2009,01,19,05,37,-0.90
2009,01,19,05,38,-0.90
2009,01,19,05,39,-0.90
2009,01,19,05,40,-0.90
2009,01,19,05,41,-0.90
2009,01,19,05,42,-0.90
2009,01,19,05,43,-0.90
2009,01,19,05,44,-0.90
2009,01,19,05,45,-0.90
2009,01,19,05,46,-0.90
2009,01,19,05,47,-0.90
2009,01,19,05,48,-0.90
2009,01,19,05,49,-0.90
2009,01,19,05,50,-0.90
2009,01,19,05,51,-1.00
2009,01,19,05,52,-1.00
2009,01,19,05,53,-1.00
2009,01,19,05,54,-1.00
2009,01,19,05,55,-1.10
2009,01,19,05,56,-1.10
2009,01,19,05,57,-1.10
2009,01,19,05,58,-1.10
2009,01,19,05,59,-1.10
2009,01,19,06,00,-1.10
2009,01,19,06,01,-1.10
2009,01,19,06,02,-1.20
2009,01,19,06,03,-1.20
2009,01,19,06,04,-1.20
2009,01,19,06,05,-1.20
2009,01,19,06,06,-1.20
2009,01,19,06,07,-1.20
2009,01,19,06,08,-1.20
2009,01,19,06,09,-1.20
2009,01,19,06,10,-1.20
2009,01,19,06,11,-1.20
2009,01,19,06,12,-1.30
2009,01,19,06,13,-1.30
2009,01,19,06,14,-1.30
2009,01,19,06,15,-1.30
2009,01,19,06,16,-1.30
2009,01,19,06,17,-1.40
2009,01,19,06,18,-1.40
2009,01,19,06,19,-1.40
2009,01,19,06,20,-1.40
2009,01,19,06,21,-1.40
2009,01,19,06,22,-1.40
2009,01,19,06,23,-1.40
2009,01,19,06,24,-1.30
2009,01,19,06,25,-1.30
2009,01,19,06,26,-1.30
2009,01,19,06,27,-1.40
2009,01,19,06,28,-1.40
2009,01,19,06,29,-1.40
2009,01,19,06,30,-1.40
2009,01,19,06,31,-1.40
2009,01,19,06,32,-1.40
2009,01,19,06,33,-1.40
2009,01,19,06,34,-1.40
2009,01,19,06,35,-1.40
2009,01,19,06,36,-1.40
2009,01,19,06,37,-1.40
2009,01,19,06,38,-1.40
2009,01,19,06,39,-1.40
2009,01,19,06,40,-1.40
2009,01,19,06,41,-1.40
2009,01,19,06,42,-1.40
2009,01,19,06,43,-1.50
2009,01,19,06,44,-1.50
2009,01,19,06,45,-1.50
2009,01,19,06,46,-1.50
2009,01,19,06,47,-1.50
2009,01,19,06,48,-1.50
2009,01,19,06,49,-1.60
2009,01,19,06,50,-1.60
2009,01,19,06,51,-1.60
2009,01,19,06,52,-1.60
2009,01,19,06,53,-1.60
2009,01,19,06,54,-1.60
2009,01,19,06,55,-1.70
2009,01,19,06,56,-1.70
2009,01,19,06,57,-1.70
2009,01,19,06,58,-1.60
2009,01,19,06,59,-1.60
2009,01,19,07,00,-1.60
2009,01,19,07,01,-1.60
2009,01,19,07,02,-1.60
2009,01,19,07,03,-1.60
2009,01,19,07,04,-1.60
2009,01,19,07,05,-1.60
2009,01,19,07,06,-1.60
2009,01,19,07,07,-1.60
2009,01,19,07,08,-1.60
2009,01,19,07,09,-1.60
2009,01,19,07,10,-1.60
2009,01,19,07,11,-1.50
2009,01,19,07,12,-1.50
2009,01,19,07,13,-1.50
2009,01,19,07,14,-1.50
2009,01,19,07,15,-1.50
2009,01,19,07,16,-1.50
2009,01,19,07,17,-1.50
2009,01,19,07,18,-1.40
2009,01,19,07,19,-1.40
2009,01,19,07,20,-1.50
2009,01,19,07,21,-1.50
2009,01,19,07,22,-1.50
2009,01,19,07,23,-1.50
2009,01,19,07,24,-1.50
2009,01,19,07,25,-1.50
2009,01,19,07,26,-1.50
2009,01,19,07,27,-1.50
2009,01,19,07,28,-1.50
2009,01,19,07,29,-1.40
2009,01,19,07,30,-1.30
2009,01,19,07,31,-1.30
2009,01,19,07,32,-1.30
2009,01,19,07,33,-1.30
2009,01,19,07,34,-1.30
2009,01,19,07,35,-1.30
2009,01,19,07,36,-1.30
2009,01,19,07,37,-1.30
2009,01,19,07,38,-1.30
2009,01,19,07,39,-1.30
2009,01,19,07,40,-1.30
2009,01,19,07,41,-1.40
2009,01,19,07,42,-1.40
2009,01,19,07,43,-1.40
2009,01,19,07,44,-1.40
2009,01,19,07,45,-1.40
2009,01,19,07,46,-1.40
2009,01,19,07,47,-1.40
2009,01,19,07,48,-1.40
2009,01,19,07,49,-1.40
2009,01,19,07,50,-1.40
2009,01,19,07,51,-1.40
2009,01,19,07,52,-1.40
2009,01,19,07,53,-1.40
2009,01,19,07,54,-1.40
2009,01,19,07,55,-1.40
2009,01,19,07,56,-1.40
2009,01,19,07,57,-1.40
2009,01,19,07,58,-1.40
2009,01,19,07,59,-1.40
2009,01,19,08,00,-1.40
2009,01,19,08,01,-1.40
2009,01,19,08,02,-1.40
2009,01,19,08,03,-1.40
2009,01,19,08,04,-1.40
2009,01,19,08,05,-1.40
2009,01,19,08,06,-1.40
2009,01,19,08,07,-1.40
2009,01,19,08,08,-1.40
2009,01,19,08,09,-1.40
2009,01,19,08,10,-1.40
2009,01,19,08,11,-1.40
2009,01,19,08,12,-1.40
2009,01,19,08,13,-1.40
2009,01,19,08,14,-1.40
2009,01,19,08,15,-1.40
2009,01,19,08,16,-1.40
2009,01,19,08,17,-1.40
2009,01,19,08,18,-1.30
2009,01,19,08,19,-1.30
2009,01,19,08,20,-1.30
2009,01,19,08,21,-1.30
2009,01,19,08,22,-1.30
2009,01,19,08,23,-1.30
2009,01,19,08,24,-1.30
2009,01,19,08,25,-1.30
2009,01,19,08,26,-1.30
2009,01,19,08,27,-1.30
2009,01,19,08,28,-1.30
2009,01,19,08,29,-1.30
2009,01,19,08,30,-1.30
2009,01,19,08,31,-1.30
2009,01,19,08,32,-1.30
2009,01,19,08,33,-1.30
2009,01,19,08,34,-1.30
2009,01,19,08,35,-1.30
2009,01,19,08,36,-1.30
2009,01,19,08,37,-1.30
2009,01,19,08,38,-1.30
2009,01,19,08,39,-1.30
2009,01,19,08,40,-1.30
2009,01,19,08,41,-1.30
2009,01,19,08,42,-1.20
2009,01,19,08,43,-1.20
2009,01,19,08,44,-1.20
2009,01,19,08,45,-1.20
2009,01,19,08,46,-1.20
2009,01,19,08,47,-1.20
2009,01,19,08,48,-1.10
2009,01,19,08,49,-1.10
2009,01,19,08,50,-1.00
2009,01,19,08,51,-0.90
2009,01,19,08,52,-0.90
2009,01,19,08,53,-0.90
2009,01,19,08,54,-0.90
2009,01,19,08,55,-0.80
2009,01,19,08,56,-0.80
2009,01,19,08,57,-0.80
2009,01,19,08,58,-0.70
2009,01,19,08,59,-0.70
2009,01,19,09,00,-0.70
2009,01,19,09,01,-0.70
2009,01,19,09,02,-0.60
2009,01,19,09,03,-0.60
2009,01,19,09,04,-0.50
2009,01,19,09,05,-0.50
2009,01,19,09,06,-0.40
2009,01,19,09,07,-0.40
2009,01,19,09,08,-0.40
2009,01,19,09,09,-0.30
2009,01,19,09,10,-0.30
2009,01,19,09,11,-0.30
2009,01,19,09,12,-0.30
2009,01,19,09,13,-0.30
2009,01,19,09,14,-0.30
2009,01,19,09,15,-0.30
2009,01,19,09,16,-0.20
2009,01,19,09,17,-0.20
2009,01,19,09,18,-0.10
2009,01,19,09,19,0.00
2009,01,19,09,20,0.10
2009,01,19,09,21,0.20
2009,01,19,09,22,0.30
2009,01,19,09,23,0.40
2009,01,19,09,24,0.40
2009,01,19,09,25,0.50
2009,01,19,09,26,0.60
2009,01,19,09,27,0.60
2009,01,19,09,28,0.70
2009,01,19,09,29,0.70
2009,01,19,09,30,0.80
2009,01,19,09,31,0.80
2009,01,19,09,32,0.80
2009,01,19,09,33,0.90
2009,01,19,09,34,0.90
2009,01,19,09,35,1.00
2009,01,19,09,36,1.10
2009,01,19,09,37,1.20
2009,01,19,09,38,1.30
2009,01,19,09,39,1.30
2009,01,19,09,40,1.50
2009,01,19,09,41,1.60
2009,01,19,09,42,1.80
2009,01,19,09,43,1.90
2009,01,19,09,44,2.00
2009,01,19,09,45,2.10
2009,01,19,09,46,2.20
2009,01,19,09,47,2.30
2009,01,19,09,48,2.40
2009,01,19,09,49,2.50
2009,01,19,09,50,2.60
2009,01,19,09,51,2.70
2009,01,19,09,52,2.70
2009,01,19,09,53,2.80
2009,01,19,09,54,2.90
2009,01,19,09,55,3.10
2009,01,19,09,56,3.20
2009,01,19,09,57,3.30
2009,01,19,09,58,3.40
2009,01,19,09,59,3.60
2009,01,19,10,00,3.60
2009,01,19,10,01,3.70
2009,01,19,10,02,3.80
2009,01,19,10,03,3.80
2009,01,19,10,04,3.90
2009,01,19,10,05,4.00
2009,01,19,10,06,4.10
2009,01,19,10,07,4.10
2009,01,19,10,08,4.20
2009,01,19,10,09,4.30
2009,01,19,10,10,4.30
2009,01,19,10,11,4.40
2009,01,19,10,12,4.50
2009,01,19,10,13,4.50
2009,01,19,10,14,4.60
2009,01,19,10,15,4.80
2009,01,19,10,16,4.90
2009,01,19,10,17,5.00
2009,01,19,10,18,5.20
2009,01,19,10,19,5.30
2009,01,19,10,20,5.40
2009,01,19,10,21,5.60
2009,01,19,10,22,5.80
2009,01,19,10,23,5.90
2009,01,19,10,24,6.10
2009,01,19,10,25,6.30
2009,01,19,10,26,6.50
2009,01,19,10,27,6.60
2009,01,19,10,28,6.80
2009,01,19,10,29,6.90
2009,01,19,10,30,7.10
2009,01,19,10,31,7.30
2009,01,19,10,32,7.40
2009,01,19,10,33,7.60
2009,01,19,10,34,7.70
2009,01,19,10,35,7.90
2009,01,19,10,36,8.00
2009,01,19,10,37,8.10
2009,01,19,10,38,8.20
2009,01,19,10,39,8.30
2009,01,19,10,40,8.40
2009,01,19,10,41,8.50
2009,01,19,10,42,8.60
2009,01,19,10,43,8.70
2009,01,19,10,44,8.70
2009,01,19,10,45,8.80
2009,01,19,10,46,8.90
2009,01,19,10,47,9.00
2009,01,19,10,48,9.00
2009,01,19,10,49,9.10
2009,01,19,10,50,9.20
2009,01,19,10,51,9.30
2009,01,19,10,52,9.40
2009,01,19,10,53,9.40
2009,01,19,10,54,9.50
2009,01,19,10,55,9.60
2009,01,19,10,56,9.60
2009,01,19,10,57,9.70
2009,01,19,10,58,9.70
2009,01,19,10,59,9.70
2009,01,19,11,00,9.80
2009,01,19,11,01,9.80
2009,01,19,11,02,9.80
2009,01,19,11,03,9.80
2009,01,19,11,04,9.90
2009,01,19,11,05,9.90
2009,01,19,11,06,9.90
2009,01,19,11,07,10.00
2009,01,19,11,08,10.00
2009,01,19,11,09,10.00
2009,01,19,11,10,10.10
2009,01,19,11,11,10.10
2009,01,19,11,12,10.10
2009,01,19,11,13,10.20
2009,01,19,11,14,10.20
2009,01,19,11,15,10.30
2009,01,19,11,16,10.30
2009,01,19,11,17,10.40
2009,01,19,11,18,10.40
2009,01,19,11,19,10.40
2009,01,19,11,20,10.50
2009,01,19,11,21,10.50
2009,01,19,11,22,10.60
2009,01,19,11,23,10.60
2009,01,19,11,24,10.70
2009,01,19,11,25,10.70
2009,01,19,11,26,10.70
2009,01,19,11,27,10.70
2009,01,19,11,28,10.80
2009,01,19,11,29,10.80
2009,01,19,11,30,10.80
2009,01,19,11,31,10.80
2009,01,19,11,32,10.80
2009,01,19,11,33,10.80
2009,01,19,11,34,10.80
2009,01,19,11,35,10.80
2009,01,19,11,36,10.80
2009,01,19,11,37,10.90
2009,01,19,11,38,10.90
2009,01,19,11,39,11.00
2009,01,19,11,40,11.00
2009,01,19,11,41,11.00
2009,01,19,11,42,11.00
2009,01,19,11,43,11.10
2009,01,19,11,44,11.10
2009,01,19,11,45,11.20
2009,01,19,11,46,11.30
2009,01,19,11,47,11.30
2009,01,19,11,48,11.40
2009,01,19,11,49,11.40
2009,01,19,11,50,11.50
2009,01,19,11,51,11.60
2009,01,19,11,52,11.60
2009,01,19,11,53,11.60
2009,01,19,11,54,11.60
2009,01,19,11,55,11.60
2009,01,19,11,56,11.60
2009,01,19,11,57,11.70
2009,01,19,11,58,11.70
2009,01,19,11,59,11.70
2009,01,19,12,00,11.70
2009,01,19,12,01,11.60
2009,01,19,12,02,11.60
2009,01,19,12,03,11.60
2009,01,19,12,04,11.60
2009,01,19,12,05,11.50
2009,01,19,12,06,11.50
2009,01,19,12,07,11.50
2009,01,19,12,08,11.60
2009,01,19,12,09,11.60
2009,01,19,12,10,11.60
2009,01,19,12,11,11.60
2009,01,19,12,12,11.60
2009,01,19,12,13,11.70
2009,01,19,12,14,11.70
2009,01,19,12,15,11.70
2009,01,19,12,16,11.80
2009,01,19,12,17,11.80
2009,01,19,12,18,11.80
2009,01,19,12,19,11.80
2009,01,19,12,20,11.90
2009,01,19,12,21,11.90
2009,01,19,12,22,11.90
2009,01,19,12,23,11.90
2009,01,19,12,24,11.90
2009,01,19,12,25,11.90
2009,01,19,12,26,11.90
2009,01,19,12,27,11.90
2009,01,19,12,28,12.00
2009,01,19,12,29,12.00
2009,01,19,12,30,12.00
2009,01,19,12,31,12.00
2009,01,19,12,32,12.10
2009,01,19,12,33,12.10
2009,01,19,12,34,12.20
2009,01,19,12,35,12.30
2009,01,19,12,36,12.30
2009,01,19,12,37,12.40
2009,01,19,12,38,12.40
2009,01,19,12,39,12.40
2009,01,19,12,40,12.50
2009,01,19,12,41,12.50
2009,01,19,12,42,12.60
2009,01,19,12,43,12.60
2009,01,19,12,44,12.60
2009,01,19,12,45,12.60
2009,01,19,12,46,12.60
2009,01,19,12,47,12.70
2009,01,19,12,48,12.70
2009,01,19,12,49,12.60
2009,01,19,12,50,12.60
2009,01,19,12,51,12.60
2009,01,19,12,52,12.60
2009,01,19,12,53,12.60
2009,01,19,12,54,12.60
2009,01,19,12,55,12.70
2009,01,19,12,56,12.70
2009,01,19,12,57,12.70
2009,01,19,12,58,12.80
2009,01,19,12,59,12.90
2009,01,19,13,00,12.90
2009,01,19,13,01,12.90
2009,01,19,13,02,12.90
2009,01,19,13,03,12.90
2009,01,19,13,04,12.80
2009,01,19,13,05,12.80
2009,01,19,13,06,12.70
2009,01,19,13,07,12.70
2009,01,19,13,08,12.70
2009,01,19,13,09,12.60
2009,01,19,13,10,12.60
2009,01,19,13,11,12.60
2009,01,19,13,12,12.70
2009,01,19,13,13,12.70
2009,01,19,13,14,12.70
2009,01,19,13,15,12.70
2009,01,19,13,16,12.70
2009,01,19,13,17,12.70
2009,01,19,13,18,12.60
2009,01,19,13,19,12.60
2009,01,19,13,20,12.60
2009,01,19,13,21,12.60
2009,01,19,13,22,12.60
2009,01,19,13,23,12.50
2009,01,19,13,24,12.50
2009,01,19,13,25,12.40
2009,01,19,13,26,12.40
2009,01,19,13,27,12.50
2009,01,19,13,28,12.50
2009,01,19,13,29,12.60
2009,01,19,13,30,12.70
2009,01,19,13,31,12.70
2009,01,19,13,32,12.70
2009,01,19,13,33,12.70
2009,01,19,13,34,12.70
2009,01,19,13,35,12.70
2009,01,19,13,36,12.80
2009,01,19,13,37,12.80
2009,01,19,13,38,12.70
2009,01,19,13,39,12.70
2009,01,19,13,40,12.70
2009,01,19,13,41,12.70
2009,01,19,13,42,12.70
2009,01,19,13,43,12.70
2009,01,19,13,44,12.70
2009,01,19,13,45,12.70
2009,01,19,13,46,12.70
2009,01,19,13,47,12.70
2009,01,19,13,48,12.80
2009,01,19,13,49,12.90
2009,01,19,13,50,12.90
2009,01,19,13,51,12.90
2009,01,19,13,52,13.00
2009,01,19,13,53,13.00
2009,01,19,13,54,13.10
2009,01,19,13,55,13.10
2009,01,19,13,56,13.10
2009,01,19,13,57,13.20
2009,01,19,13,58,13.20
2009,01,19,13,59,13.30
2009,01,19,14,00,13.30
2009,01,19,14,01,13.30
2009,01,19,14,02,13.40
2009,01,19,14,03,13.40
2009,01,19,14,04,13.40
2009,01,19,14,05,13.40
2009,01,19,14,06,13.40
2009,01,19,14,07,13.40
2009,01,19,14,08,13.40
2009,01,19,14,09,13.40
2009,01,19,14,10,13.30
2009,01,19,14,11,13.30
2009,01,19,14,12,13.30
2009,01,19,14,13,13.30
2009,01,19,14,14,13.30
2009,01,19,14,15,13.30
2009,01,19,14,16,13.30
2009,01,19,14,17,13.10
2009,01,19,14,18,13.10
2009,01,19,14,19,13.00
2009,01,19,14,20,13.00
2009,01,19,14,21,12.90
2009,01,19,14,22,12.90
2009,01,19,14,23,12.90
2009,01,19,14,24,12.80
2009,01,19,14,25,12.80
2009,01,19,14,26,12.80
2009,01,19,14,27,12.70
2009,01,19,14,28,12.60
2009,01,19,14,29,12.50
2009,01,19,14,30,12.40
2009,01,19,14,31,12.40
2009,01,19,14,32,12.40
2009,01,19,14,33,12.50
2009,01,19,14,34,12.50
2009,01,19,14,35,12.50
2009,01,19,14,36,12.40
2009,01,19,14,37,12.40
2009,01,19,14,38,12.40
2009,01,19,14,39,12.40
2009,01,19,14,40,12.40
2009,01,19,14,41,12.40
2009,01,19,14,42,12.40
2009,01,19,14,43,12.40
2009,01,19,14,44,12.40
2009,01,19,14,45,12.40
